Home   Weather   Denali   Past weeks
Flag for USA

Past Weather in Denali, Alaska, USA — July 2019

Now
50 °F

Overcast.


Feels Like: 50 °F
Forecast: 53 / 47 °F
Wind: No wind

Location: Talkeetna Weather Reporting Station

Current Time: May 31, 2020 at 6:39:52 am

Latest Report: May 31, 2020 at 5:53 am


Visibility: 10 mi

Pressure: 29.72 "Hg

Humidity: 89%

Dew Point: 47 °F

Location of DenaliLocation

July 2019 Weather in Denali — Graph

°F

High & Low Weather Summary for July 2019

 TemperatureHumidityPressure
High93 °F (Jul 7, 5:53 pm)97% (Jul 12, 4:15 am)30.26 "Hg (Jul 12, 4:15 am)
Low48 °F (Jul 29, 6:53 am)20% (Jul 7, 5:53 pm)29.55 "Hg (Jul 16, 6:53 pm)
Average65 °F69%29.92 "Hg
* Reported Jul 1 12:53 am — Jul 31 11:53 pm, Denali. Weather by CustomWeather, © 2020

Note: Actual official high and low records may vary slightly from our data, if they occured in-between our weather recording intervals... More about our weather records

Denali Weather History for July 1, 2019

Scroll right to see more
 ConditionsComfort  
Time TempWeatherWind HumidityBarometerVisibility
12:53 am
Mon, Jul 1
60 °FPassing clouds.3 mph80%30.16 "Hg10 mi
1:53 am59 °FPassing clouds.No wind84%30.16 "Hg10 mi
2:53 am57 °FPassing clouds.No wind87%30.18 "Hg10 mi
3:53 am61 °FOvercast.No wind75%30.18 "Hg10 mi
4:53 am60 °FOvercast.No wind80%30.18 "Hg10 mi
5:53 am60 °FMostly cloudy.No wind80%30.19 "Hg10 mi
6:53 am59 °FScattered clouds.No wind84%30.19 "Hg10 mi
7:53 am62 °FOvercast.3 mph73%30.19 "Hg10 mi
8:53 am62 °FSunny.No wind70%30.19 "Hg10 mi
9:53 am64 °FSunny.6 mph63%30.19 "Hg10 mi
10:53 am65 °FSunny.6 mph61%30.18 "Hg10 mi
11:53 am69 °FSunny.5 mph57%30.16 "Hg10 mi
12:53 pm71 °FSunny.5 mph53%30.15 "Hg10 mi
1:53 pm74 °FSunny.6 mph50%30.14 "Hg10 mi
2:53 pm75 °FSunny.5 mph48%30.12 "Hg10 mi
3:53 pm76 °FSunny.6 mph47%30.11 "Hg10 mi
4:53 pm77 °FSunny.8 mph45%30.10 "Hg10 mi
5:53 pm78 °FSunny.5 mph42%30.09 "Hg10 mi
6:53 pm78 °FSunny.6 mph43%30.09 "Hg10 mi
7:53 pm78 °FSunny.7 mph43%30.08 "Hg10 mi
8:53 pm77 °FSunny.5 mph44%30.08 "Hg10 mi
9:53 pm75 °FSunny.3 mph39%30.08 "Hg10 mi
10:53 pm68 °FSunny.3 mph59%30.09 "Hg10 mi
11:53 pm68 °FClear.No wind47%30.10 "Hg10 mi
Weather by CustomWeather, © 2020

See weather overview

Advertising